Regional Weather Roundup
Issued by NWS

Home | Current Version | Previous Version | Graphics & Text | Print | Product List | Glossary On
Versions: 1 2 3 4 5 6 7 8 9 10 11 12 13 14 15 16 17 18 19 20 21 22 23 24 25 26 27 28 29 30 31 32 33 34 35 36 37 38 39 40 41 42 43 44 45 46 47 48 49 50
000
ASUS43 KTOP 221808
RWRKS

WEATHER ROUNDUP FOR KANSAS
NATIONAL WEATHER SERVICE GOODLAND KS
1200 PM CST SAT NOV 22 2014

NOTE:  "FAIR" INDICATES FEW OR NO CLOUDS BELOW 12,000 FEET WITH NO
SIGNIFICANT WEATHER AND/OR OBSTRUCTIONS TO VISIBILITY.

KSZ001>006-013>018-027>032-041>047-221900-
NORTHWEST KANSAS

CITY           SKY/WX    TMP DP  RH WIND       PRES   REMARKS
GOODLAND       SUNNY     64  17  16 SW21G28   29.71F
6HR MIN TEMP:  37; 6HR MAX TEMP:  64;

HAYS           SUNNY     52  36  54 S15       29.79F
HILL CITY      SUNNY     58  31  35 S8        29.76F
6HR MIN TEMP:  20; 6HR MAX TEMP:  58;

RUSSELL        SUNNY     54  41  61 S20G25    29.77F
6HR MIN TEMP:  31; 6HR MAX TEMP:  54;

$$

KSZ061>065-074>080-084>089-221900-
SOUTHWEST KANSAS

CITY           SKY/WX    TMP DP  RH WIND       PRES   REMARKS
DODGE CITY     SUNNY     56  34  43 S18       29.81F
6HR MIN TEMP:  35; 6HR MAX TEMP:  56;

ELKHART          N/A    N/A N/A N/A MISG        N/A
GARDEN CITY    SUNNY     54  34  46 S12       29.78F
6HR MIN TEMP:  25; 6HR MAX TEMP:  54;

GREAT BEND     SUNNY     55  45  67 S24       29.81F
LIBERAL        SUNNY     59  36  41 SW9       29.83F
PRATT          CLOUDY    54  52  94 S17       29.84F
$$

KSZ066>073-081>083-090>101-221900-
SOUTHEAST KANSAS

CITY           SKY/WX    TMP DP  RH WIND       PRES   REMARKS
CHANUTE        CLOUDY    58  53  84 S18       29.93F
6HR MIN TEMP:  54; 6HR MAX TEMP:  58;

COFFEYVILLE    CLOUDY    58  53  84 S13G22    29.94F
6HR MIN TEMP:  55; 6HR MAX TEMP:  58;

HUTCHINSON     FOG       53  51  93 S13       29.85F VSB 1/4
6HR MIN TEMP:  42; 6HR MAX TEMP:  53;

MEDICINE LODGE   N/A     47  47 100 S7        29.86F
NEWTON         CLOUDY    52  48  87 S16       29.88F VSB 1/4
PARSONS        CLOUDY    58  54  86 S8        29.95F
6HR MIN TEMP:  55; 6HR MAX TEMP:  58;

WICHITA INTL   FOG       53  51  93 S12       29.87F VSB 1/4
6HR MIN TEMP:  44; 6HR MAX TEMP:  53; 6HR PCP: TRACE;

WICHITA JABRA  CLOUDY    56  56 100 S18G25    29.87F
6HR MIN TEMP:  44; 6HR MAX TEMP:  56; 6HR PCP:  0.01;

WICHITA MCCONL CLOUDY    54  54 100 S15       29.88F FOG
WINFIELD       CLOUDY    59  56  89 S12       29.90F
6HR MIN TEMP:  47; 6HR MAX TEMP:  59;

$$

KSZ007>012-019>026-033>040-048>060-102>105-221900-
NORTHEAST KANSAS

CITY           SKY/WX    TMP DP  RH WIND       PRES   REMARKS
CONCORDIA      SUNNY     54  46  74 S16       29.79F
6HR MIN TEMP:  38; 6HR MAX TEMP:  54;

EMPORIA        CLOUDY    56  56 100 S17G23    29.88F FOG
6HR MIN TEMP:  48; 6HR MAX TEMP:  56; 6HR PCP:  0.01;

LAWRENCE       CLOUDY    56  54  93 S16G25    29.88F FOG
6HR MIN TEMP:  46; 6HR MAX TEMP:  56;

MANHATTAN      CLOUDY    54  53  97 SW12      29.83F FOG
6HR MIN TEMP:  41; 6HR MAX TEMP:  53; 6HR PCP: TRACE;

MARYSVILLE     CLOUDY    52  48  87 SW8       29.81F
OLATHE IND     CLOUDY    55  54  96 S15       29.91F FOG
6HR MIN TEMP:  53; 6HR MAX TEMP:  55;

OLATHE EXE     CLOUDY    56  54  93 S12       29.90F
6HR MIN TEMP:  53; 6HR MAX TEMP:  56;

SALINA         CLOUDY    57  52  83 S20       29.82F
6HR MIN TEMP:  40; 6HR MAX TEMP:  57;

TOPEKA BILLARD CLOUDY    58  57  97 S13G22    29.86F FOG
6HR MIN TEMP:  43; 6HR MAX TEMP:  58;

TOPEKA FORBES  CLOUDY    57  55  93 S17G23    29.86F FOG
6HR MIN TEMP:  49; 6HR MAX TEMP:  57;

$$



USA.gov is the U.S. government's official web portal to all federal, state and local government web resources and services.